Regional Weather Roundup
Issued by NWS

Home | Current Version | Previous Version | Text Only | Print | Product List | Glossary Off
Versions: 1 2 3 4 5 6 7 8 9 10 11 12 13 14 15 16 17 18 19 20 21 22 23 24 25 26 27 28 29 30 31 32 33 34 35 36 37 38 39 40 41 42 43 44 45 46 47 48 49 50

000
ASUS43 KDTX 260610
RWRMI
MICHIGAN HOURLY REGIONAL WEATHER ROUNDUP
NATIONAL WEATHER SERVICE DETROIT/PONTIAC MI
100 AM EST FRI DEC 26 2014

NOTE: "FAIR" INDICATES FEW OR NO CLOUDS BELOW 12,000 FEET WITH NO
SIGNIFICANT WEATHER AND/OR OBSTRUCTION TO VISIBILITY.

MIZ047>049-052>055-059>063-066>070-074>076-081>083-260700-
SOUTHEAST LOWER MICHIGAN

CITY           SKY/WX    TMP DP  RH WIND       PRES   REMARKS
ADRIAN         MOCLDY    34  30  85 SW8       30.12S WCI  27
6HR MIN TEMP:  32; 6HR MAX TEMP:  35;

ALMA           CLEAR     32  31  95 S7        30.05F WCI  26
6HR MIN TEMP:  32; 6HR MAX TEMP:  33;

ANN ARBOR      FAIR      32  29  88 SW7       30.11R WCI  26
BAD AXE        CLEAR     32  31  96 SW7       30.07R WCI  26
CARO           FAIR      32  29  90 SW8       30.06S WCI  24
DETROIT CITY   PTCLDY    38  30  73 SW10      30.12S WCI  31
6HR MIN TEMP:  36; 6HR MAX TEMP:  39;

DETROIT        CLOUDY    33  30  88 S5        30.13R WCI  29
6HR MIN TEMP:  32; 6HR MAX TEMP:  37;

FLINT          PTCLDY    36  29  75 S8        30.09R WCI  30
6HR MIN TEMP:  35; 6HR MAX TEMP:  36;

GROSSE ILE     PTCLDY    36  32  87 S9        30.12S WCI  29
HILLSDALE      PTCLDY    34  33  94 S8        30.09R WCI  28
6HR MIN TEMP:  33; 6HR MAX TEMP:  35;

HOWELL         MOCLDY    33  30  92 S7        30.08F WCI  26
6HR MIN TEMP:  32; 6HR MAX TEMP:  33;


CITY           SKY/WX    TMP DP  RH WIND       PRES   REMARKS
JACKSON        MOCLDY    35  30  82 S10       30.09R WCI  27
6HR MIN TEMP:  33; 6HR MAX TEMP:  35;

LAMBERTVILLE   MOCLDY    34  30  86 S5        30.13S WCI  30
LANSING        MOCLDY    34  29  82 S9        30.08R WCI  27
6HR MIN TEMP:  33; 6HR MAX TEMP:  34;

LAPEER         FAIR      33  30  88 SW9       30.07F WCI  25
MASON          MOCLDY    33  29  85 S5        30.08S WCI  29
MONROE         PTCLDY    36  30  80 S7        30.10F WCI  30
MT. CLEMENS    PTCLDY    35  35  99 SW10      30.09S WCI  27
6HR MIN TEMP:  35; 6HR MAX TEMP:  37;

PONTIAC        MOCLDY    33  29  85 S7        30.08S WCI  27
6HR MIN TEMP:  32; 6HR MAX TEMP:  35;

PORT HOPE        N/A     34  29  82 SW9       30.04S WCI  27
6HR MIN TEMP:  34; 6HR MAX TEMP:  37;

PORT HURON     CLEAR     34  30  86 SW8       30.11R WCI  27
TRI CITIES     PTCLDY    35  30  82 S8        30.06R WCI  29
6HR MIN TEMP:  34; 6HR MAX TEMP:  36;

TROY           MOCLDY    36  31  83 SW7       30.13R WCI  30
SAGINAW HB     PTCLDY    34  32  93 S12       30.06R WCI  25
$$
MIZ043>046-050>051-056>058-064>065-071>073-077>080-260700-
SOUTHWEST LOWER MICHIGAN

CITY           SKY/WX    TMP DP  RH WIND       PRES   REMARKS
BATTLE CREEK   CLOUDY    36  30  79 S10       30.07S WCI  28
6HR MIN TEMP:  34; 6HR MAX TEMP:  36;

BENTON HARBOR  MOCLDY    37  32  82 S12       30.06R WCI  29
6HR MIN TEMP:  35; 6HR MAX TEMP:  38;

BIG RAPIDS     PTCLDY    33  32  96 S3        30.01S
6HR MIN TEMP:  33; 6HR MAX TEMP:  35;

COLDWATER      MOCLDY    35  31  87 MISG      30.08S
6HR MIN TEMP:  33; 6HR MAX TEMP:  35;

FREMONT        FAIR      32  31  96 S3        30.02S
HOLLAND        CLOUDY    38  32  79 S9        30.05R WCI  31
6HR MIN TEMP:  35; 6HR MAX TEMP:  38;

GRAND RAPIDS   MOCLDY    34  30  85 S9        30.06R WCI  27
6HR MIN TEMP:  32; 6HR MAX TEMP:  34;

IONIA          FAIR      35  32  88 S10       30.05S WCI  28
KALAMAZOO      CLOUDY    35  31  85 S9        30.08R WCI  28
6HR MIN TEMP:  33; 6HR MAX TEMP:  36;

LUDINGTON      CLOUDY    41  37  87 S15       30.00S
MARSHALL       MOCLDY    35  31  85 S8        30.08R WCI  28
MOUNT PLEASANT CLEAR     32  30  92 CALM      30.03S
6HR MIN TEMP:  32; 6HR MAX TEMP:  35;

MUSKEGON       CLOUDY    40  34  79 S13       30.03S WCI  32
6HR MIN TEMP:  37; 6HR MAX TEMP:  40;

SOUTH HAVEN    CLOUDY    40  33  75 S7G17     30.05S
$$
MIZ016>042-260700-
NORTHERN LOWER MICHIGAN

CITY           SKY/WX    TMP DP  RH WIND       PRES   REMARKS
ALPENA         CLOUDY    35  30  82 SW3       30.02S
6HR MIN TEMP:  34; 6HR MAX TEMP:  35;

BEAVER ISLAND  CLOUDY    35  33  94 CALM      29.97S
6HR MIN TEMP:  34; 6HR MAX TEMP:  37;

BELLAIRE       CLOUDY    38  33  82 S5        29.99F WCI  34
6HR MIN TEMP:  36; 6HR MAX TEMP:  38;

CADILLAC       CLOUDY    34  32  92 CALM      29.98S
CHARLEVOIX     CLOUDY    37  34  87 SW10G16   30.00S WCI  30
6HR MIN TEMP:  36; 6HR MAX TEMP:  37;

FRANKFORT      CLOUDY    40  37  89 S10G16    29.98S WCI  33
GAYLORD        CLOUDY    34  31  88 SW12      29.97R WCI  25
6HR MIN TEMP:  32; 6HR MAX TEMP:  34;

GRAYLING       CLOUDY    36  32  88 SW6       30.00F WCI  31
6HR MIN TEMP:  33; 6HR MAX TEMP:  36;

HARBOR SPRINGS CLOUDY    37  33  86 SW9       29.98R WCI  30
HOUGHTON LAKE  CLOUDY    34  30  85 SW12      30.01R WCI  25
6HR MIN TEMP:  33; 6HR MAX TEMP:  34;

MANISTEE       CLOUDY    39  34  81 SW10      30.00S WCI  32
OSCODA         CLOUDY    34  31  89 SW8       30.03S WCI  27
PELLSTON       CLOUDY    37  33  85 SW8       29.98R WCI  31
6HR MIN TEMP:  35; 6HR MAX TEMP:  37; 6HR PCP: TRACE;

ROGERS CITY    CLOUDY    35  32  89 S10       30.00S WCI  28
TRAVERSE CITY  CLOUDY    39  33  79 S7        29.98S WCI  34
6HR MIN TEMP:  37; 6HR MAX TEMP:  39;

$$
MIZ007>008-015-260700-
EASTERN UPPER MICHIGAN

CITY           SKY/WX    TMP DP  RH WIND       PRES   REMARKS
KINROSS        CLOUDY    34  32  93 CALM      29.96R
6HR MIN TEMP:  34; 6HR MAX TEMP:  36;

MACKINAC ISLAN CLOUDY    34  34 100 S5        29.97R FOG     WCI  30
6HR MIN TEMP:  34; 6HR MAX TEMP:  36;

NEWBERRY       LGT SNOW  32  32  99 SW7       29.94S WCI  25
S. S. MARIE    LGT SNOW  33  30  88 SW7       29.95R FOG     WCI  27
6HR MIN TEMP:  34; 6HR MAX TEMP:  34; 6HR PCP: TRACE;

MUNISING         N/A     34  31  88 S5        29.92F WCI  30
6HR MIN TEMP:  34; 6HR MAX TEMP:  37; 6HR PCP:  0.02;

$$
MIZ004>006-011>014-085-260700-
CENTRAL UPPER MICHIGAN

CITY           SKY/WX    TMP DP  RH WIND       PRES   REMARKS
MANISTIQUE     CLOUDY    32  32 100 MISG      29.95S
6HR MIN TEMP:  32; 6HR MAX TEMP:  33;

ESCANABA       CLOUDY    32  28  86 CALM      29.93F
6HR MIN TEMP:  32; 6HR MAX TEMP:  34;

MENOMINEE      PTCLDY    30  27  86 CALM      29.93S
6HR MIN TEMP:  28; 6HR MAX TEMP:  36;

SAWYER-GWINN   CLOUDY    31  30  94 SW5       29.90S WCI  27
$$
MIZ001>003-009>011-084-260700-
WESTERN UPPER MICHIGAN

CITY           SKY/WX    TMP DP  RH WIND       PRES   REMARKS
IRON MOUNTAIN  CLOUDY    31  30  96 CALM      29.90S
6HR MIN TEMP:  31; 6HR MAX TEMP:  32; 6HR PCP: TRACE;

HOUGHTON       CLOUDY    30  28  92 W3        29.88R
6HR MIN TEMP:  30; 6HR MAX TEMP:  33; 6HR PCP: TRACE;

COPPER HARBOR    N/A     34  30  85 VRB6      29.90R WCI  29
6HR MIN TEMP:  33; 6HR MAX TEMP:  35; 6HR PCP:  0.02;

IRONWOOD       CLOUDY    30  28  93 S3        29.87R
6HR MIN TEMP:  30; 6HR MAX TEMP:  30;

$$

ABBREVIATIONS USED IN REMARKS
   TC - TEMPERATURE IN CELSIUS
  WCI - WIND CHILL INDEX
   HX - HEAT INDEX
  VSB - VISIBILITY



USA.gov is the U.S. government's official web portal to all federal, state and local government web resources and services.